TimeCDT,TemperatureF,Dew PointF,Humidity,Sea Level PressureIn,VisibilityMPH,Wind Direction,Wind SpeedMPH,Gust SpeedMPH,PrecipitationIn,Events,Conditions,WindDirDegrees,DateUTC
12:16 AM,50.0,28.4,43,30.14,10.0,Calm,Calm,-,N/A,,Clear,0,2013-05-27 05:16:00
12:37 AM,48.2,28.4,46,30.12,10.0,Calm,Calm,-,N/A,,Clear,0,2013-05-27 05:37:00
12:57 AM,46.4,28.4,50,30.10,10.0,Calm,Calm,-,N/A,,Clear,0,2013-05-27 05:57:00
1:16 AM,46.4,28.4,50,30.10,10.0,Calm,Calm,-,N/A,,Clear,0,2013-05-27 06:16:00
1:37 AM,44.6,28.4,53,30.10,10.0,Calm,Calm,-,N/A,,Clear,0,2013-05-27 06:37:00
1:57 AM,44.6,28.4,53,30.11,10.0,Calm,Calm,-,N/A,,Clear,0,2013-05-27 06:57:00
2:16 AM,42.8,28.4,57,30.11,10.0,Calm,Calm,-,N/A,,Clear,0,2013-05-27 07:16:00
2:37 AM,41.0,28.4,61,30.10,10.0,Calm,Calm,-,N/A,,Clear,0,2013-05-27 07:37:00
2:57 AM,41.0,28.4,61,30.10,10.0,Calm,Calm,-,N/A,,Clear,0,2013-05-27 07:57:00
3:16 AM,39.2,30.2,70,30.10,10.0,Calm,Calm,-,N/A,,Clear,0,2013-05-27 08:16:00
3:37 AM,37.4,30.2,75,30.10,10.0,Calm,Calm,-,N/A,,Clear,0,2013-05-27 08:37:00
3:57 AM,37.4,30.2,75,30.11,10.0,Calm,Calm,-,N/A,,Clear,0,2013-05-27 08:57:00
4:16 AM,39.2,28.4,65,30.10,10.0,Calm,Calm,-,N/A,,Clear,0,2013-05-27 09:16:00
4:37 AM,39.2,30.2,70,30.10,10.0,Calm,Calm,-,N/A,,Clear,0,2013-05-27 09:37:00
4:57 AM,37.4,30.2,75,30.09,10.0,Calm,Calm,-,N/A,,Clear,0,2013-05-27 09:57:00
5:16 AM,37.4,30.2,75,30.09,10.0,ENE,3.5,-,N/A,,Clear,70,2013-05-27 10:16:00
5:37 AM,37.4,30.2,75,30.09,10.0,East,3.5,-,N/A,,Clear,80,2013-05-27 10:37:00
5:57 AM,39.2,30.2,70,30.10,10.0,Calm,Calm,-,N/A,,Clear,0,2013-05-27 10:57:00
6:16 AM,39.2,30.2,70,30.10,10.0,Calm,Calm,-,N/A,,Clear,0,2013-05-27 11:16:00
6:37 AM,41.0,33.8,76,30.11,10.0,Calm,Calm,-,N/A,,Clear,0,2013-05-27 11:37:00
6:57 AM,44.6,33.8,66,30.10,10.0,Calm,Calm,-,N/A,,Clear,0,2013-05-27 11:57:00
7:16 AM,46.4,33.8,62,30.10,10.0,Calm,Calm,-,N/A,,Clear,0,2013-05-27 12:16:00
7:37 AM,50.0,35.6,58,30.10,10.0,Calm,Calm,-,N/A,,Clear,0,2013-05-27 12:37:00
7:57 AM,51.8,37.4,58,30.09,10.0,Calm,Calm,-,N/A,,Clear,0,2013-05-27 12:57:00
8:16 AM,53.6,37.4,54,30.09,10.0,East,6.9,-,N/A,,Clear,90,2013-05-27 13:16:00
8:37 AM,57.2,37.4,48,30.08,10.0,ESE,3.5,-,N/A,,Clear,110,2013-05-27 13:37:00
8:57 AM,57.2,37.4,48,30.07,10.0,ESE,6.9,-,N/A,,Clear,110,2013-05-27 13:57:00
9:16 AM,57.2,39.2,51,30.07,10.0,ESE,5.8,-,N/A,,Clear,120,2013-05-27 14:16:00
9:37 AM,59.0,41.0,51,30.07,10.0,SSE,9.2,-,N/A,,Clear,150,2013-05-27 14:37:00
9:57 AM,60.8,42.8,52,30.05,10.0,ESE,9.2,-,N/A,,Clear,120,2013-05-27 14:57:00
10:16 AM,62.6,44.6,52,30.05,10.0,SSE,10.4,-,N/A,,Clear,150,2013-05-27 15:16:00
10:37 AM,62.6,44.6,52,30.05,10.0,ESE,6.9,-,N/A,,Clear,120,2013-05-27 15:37:00
10:56 AM,62.6,46.4,55,30.03,10.0,SE,10.4,21.9,N/A,,Clear,140,2013-05-27 15:56:00
11:17 AM,62.6,44.6,52,30.02,10.0,SE,6.9,19.6,N/A,,Scattered Clouds,140,2013-05-27 16:17:00
11:36 AM,64.4,44.6,49,30.01,10.0,SE,13.8,20.7,N/A,,Scattered Clouds,130,2013-05-27 16:36:00
11:56 AM,64.4,41.0,42,30.00,10.0,SSE,10.4,19.6,N/A,,Clear,150,2013-05-27 16:56:00
12:17 PM,66.2,41.0,40,29.99,10.0,East,12.7,16.1,N/A,,Clear,90,2013-05-27 17:17:00
12:36 PM,66.2,41.0,40,29.99,10.0,SSE,10.4,21.9,N/A,,Clear,160,2013-05-27 17:36:00
12:56 PM,66.2,41.0,40,29.98,10.0,SSE,10.4,16.1,N/A,,Clear,150,2013-05-27 17:56:00
1:17 PM,68.0,41.0,37,29.98,10.0,ESE,8.1,17.3,N/A,,Clear,110,2013-05-27 18:17:00
1:36 PM,69.8,42.8,38,29.97,10.0,SE,10.4,-,N/A,,Clear,140,2013-05-27 18:36:00
1:57 PM,68.0,42.8,40,29.97,10.0,SSE,9.2,16.1,N/A,,Mostly Cloudy,150,2013-05-27 18:57:00
2:16 PM,68.0,42.8,40,29.97,10.0,ESE,10.4,18.4,N/A,,Overcast,110,2013-05-27 19:16:00
2:36 PM,66.2,44.6,46,29.97,10.0,SE,9.2,-,N/A,,Overcast,130,2013-05-27 19:36:00
2:57 PM,66.2,42.8,43,29.97,10.0,SE,10.4,-,N/A,,Overcast,130,2013-05-27 19:57:00
3:16 PM,66.2,44.6,46,29.97,10.0,SE,12.7,19.6,N/A,,Overcast,140,2013-05-27 20:16:00
3:36 PM,66.2,42.8,43,29.96,10.0,SE,11.5,18.4,N/A,,Overcast,140,2013-05-27 20:36:00
3:56 PM,66.2,42.8,43,29.96,10.0,SE,11.5,19.6,N/A,,Overcast,130,2013-05-27 20:56:00
4:17 PM,66.2,42.8,43,29.95,10.0,ESE,8.1,16.1,N/A,,Overcast,120,2013-05-27 21:17:00
4:36 PM,68.0,41.0,37,29.94,10.0,SE,9.2,16.1,N/A,,Mostly Cloudy,140,2013-05-27 21:36:00
4:57 PM,66.2,41.0,40,29.94,10.0,SSE,12.7,18.4,N/A,,Mostly Cloudy,150,2013-05-27 21:57:00
5:16 PM,66.2,39.2,37,29.94,10.0,SSE,9.2,-,N/A,,Mostly Cloudy,150,2013-05-27 22:16:00
5:37 PM,66.2,39.2,37,29.93,10.0,SSE,8.1,17.3,N/A,,Mostly Cloudy,150,2013-05-27 22:37:00
5:56 PM,66.2,39.2,37,29.93,10.0,SE,10.4,16.1,N/A,,Unknown,130,2013-05-27 22:56:00
6:16 PM,66.2,39.2,37,29.93,10.0,SE,9.2,18.4,N/A,,Overcast,140,2013-05-27 23:16:00
6:37 PM,64.4,39.2,40,29.91,10.0,SE,6.9,16.1,N/A,,Overcast,140,2013-05-27 23:37:00
6:56 PM,66.2,39.2,37,29.91,10.0,SE,5.8,-,N/A,,Overcast,130,2013-05-27 23:56:00
7:17 PM,66.2,39.2,37,29.91,10.0,SE,9.2,-,N/A,,Mostly Cloudy,140,2013-05-28 00:17:00
7:37 PM,66.2,39.2,37,29.91,10.0,SSE,4.6,-,N/A,,Mostly Cloudy,150,2013-05-28 00:37:00
7:56 PM,64.4,39.2,40,29.91,10.0,SE,6.9,-,N/A,,Mostly Cloudy,140,2013-05-28 00:56:00
8:17 PM,64.4,37.4,37,29.91,10.0,SE,4.6,-,N/A,,Mostly Cloudy,140,2013-05-28 01:17:00
8:36 PM,64.4,37.4,37,29.91,10.0,ESE,4.6,-,N/A,,Overcast,120,2013-05-28 01:36:00
8:57 PM,62.6,37.4,39,29.91,10.0,SE,4.6,-,N/A,,Overcast,130,2013-05-28 01:57:00
9:16 PM,62.6,37.4,39,29.91,10.0,SE,5.8,-,N/A,,Overcast,130,2013-05-28 02:16:00
9:37 PM,62.6,37.4,39,29.92,10.0,ESE,6.9,-,N/A,,Overcast,120,2013-05-28 02:37:00
9:57 PM,60.8,37.4,42,29.92,10.0,SE,5.8,-,N/A,,Overcast,140,2013-05-28 02:57:00
10:16 PM,60.8,35.6,39,29.92,10.0,ESE,3.5,-,N/A,,Overcast,120,2013-05-28 03:16:00
10:37 PM,60.8,35.6,39,29.91,10.0,ESE,5.8,-,N/A,,Scattered Clouds,110,2013-05-28 03:37:00
10:56 PM,59.0,35.6,42,29.91,10.0,ESE,5.8,-,N/A,,Scattered Clouds,120,2013-05-28 03:56:00
11:17 PM,57.2,33.8,41,29.90,10.0,ESE,5.8,-,N/A,,Clear,120,2013-05-28 04:17:00
11:36 PM,57.2,33.8,41,29.89,10.0,East,3.5,-,N/A,,Clear,100,2013-05-28 04:36:00
11:56 PM,55.4,35.6,47,29.89,10.0,Calm,Calm,-,N/A,,Clear,0,2013-05-28 04:56:00